+ View the NASA Portal
+ Center for Near-Earth Object Studies
IMPORTANT:
The SSD Announcement email list is now available. Major changes are coming in the near future, including possible hostname and/or URL changes. To be notified of such changes, subscribe to this email list.
Please visit
this page
for more details.
Don't show this message again
JPL Small-Body Database Browser
Search:
[
help
]
300525 (2007 TZ214)
Classification:
Main-belt Asteroid
SPK-ID:
2300525
[
Ephemeris
|
Orbit Diagram
|
Orbital Elements
|
Mission Design
|
Physical Parameters
|
Discovery Circumstances
|
Close-Approach Data
]
[ show orbit diagram ]
Orbital Elements at Epoch 2458600.5 (2019-Apr-27.0) TDB
Reference:
JPL 13
(heliocentric ecliptic J2000)
Element
Value
Uncertainty (1-sigma)
Units
e
.08752538038443611
4.1876e-08
a
2.611712158819874
2.3383e-08
au
q
2.383121058664508
1.1668e-07
au
i
5.977336996351876
4.6139e-06
deg
node
244.4481294859067
6.9109e-05
deg
peri
173.7301061767994
8.4108e-05
deg
M
246.8646525970989
5.027e-05
deg
t
p
2459084.987088036226
(2020-Aug-23.48708804)
0.00021835
TDB
period
1541.652151134587
4.22
2.0704e-05
5.668e-08
d
yr
n
.2335157121760937
3.1361e-09
deg/d
Q
2.84030325897524
2.543e-08
au
Orbit Determination Parameters
# obs. used (total)
231
data-arc span
8622 days (23.61 yr)
first obs. used
1996-01-14
last obs. used
2019-08-23
planetary ephem.
DE431
SB-pert. ephem.
SB431-N16
condition code
0
norm. resid. RMS
.57194
source
ORB
producer
Otto Matic
solution date
2019-Sep-24 05:49:21
Additional Information
Earth MOID
= 1.39509 au
Jupiter MOID
= 2.43924 au
T_jup
= 3.396
[ show covariance matrix ]
[
Ephemeris
|
Orbit Diagram
|
Orbital Elements
|
Mission Design
|
Physical Parameters
|
Discovery Circumstances
|
Close-Approach Data
]
Physical Parameter Table
Parameter
Symbol
Value
Units
Sigma
Reference
Notes
absolute magnitude
H
16.6
n/a
MPO455218
300525 (2007 TZ214)
Discovered 2007-Oct-07 by Spacewatch at Kitt Peak
Reference:
20111012/Numbers.arc
Last Updated:
2011-10-13
[ show close-approach data ]
Alternate Designations
2007 TZ214
= 2003 YG165
[
Ephemeris
|
Orbit Diagram
|
Orbital Elements
|
Mission Design
|
Physical Parameters
|
Discovery Circumstances
|
Close-Approach Data
]
2019-Dec-10 19:59 UT
(server date/time)
Site Manager:
Ryan S. Park
Webmaster
:
Alan B. Chamberlin